Wind_Speed
49 46 45 42 38 38 36 35 35 34 33 31 28 26 24 22 22 30 34 33 29 29 28 27 26 24 23 24 25 27 31 32 31 33 35 31 32 33
50 48 46 44 41 41 39 38 38 37 37 34 30 27 30 29 32 32 36 32 28 28 29 29 28 28 26 25 26 28 30 33 38 30 35 35 44 36
48 49 47 45 42 42 42 41 42 41 41 36 36 34 34 34 30 30 37 34 29 25 25 25 27 26 29 31 30 32 33 33 34 44 45 34 36 42
49 53 51 48 46 45 45 44 44 45 43 37 33 41 35 29 24 20 28 39 46 34 35 29 29 34 31 34 33 36 37 36 35 37 42 45 45 41
48 49 50 51 49 48 48 49 48 45 52 45 40 39 31 29 34 28 27 27 28 27 29 35 35 37 34 40 37 39 40 41 39 38 40 44 43 46
65 46 47 47 56 53 51 57 56 57 39 37 37 35 28 32 36 36 36 35 36 34 34 37 38 42 42 40 40 38 41 42 41 42 46 44 42 48
39 50 43 49 51 50 57 60 69 52 34 31 29 39 38 38 36 38 40 40 38 36 38 36 38 41 41 41 37 34 36 43 44 43 42 41 47 49
17 12 16 24 24 33 38 44 48 37 29 36 36 46 41 40 42 40 46 45 42 42 40 36 35 39 42 37 39 36 41 42 44 44 44 44 44 45
5 7 9 18 18 23 28 37 33 25 27 35 34 35 36 42 44 41 44 49 48 42 41 44 36 36 31 36 41 45 43 43 45 48 47 46 45 49
13 11 9 11 13 15 16 20 24 26 29 31 35 36 38 42 47 50 49 48 46 48 38 40 40 44 49 49 48 45 44 42 41 45 46 44 45 46
6 7 9 9 9 9 10 13 13 15 17 20 21 25 30 34 38 42 44 45 44 41 45 52 55 50 47 55 59 52 45 43 41 44 41 46 48 46
11 11 11 12 13 15 18 18 18 20 21 22 22 23 24 24 25 28 32 35 42 46 49 49 51 51 52 51 51 53 49 49 50 49 49 48 52 50
15 16 17 18 19 20 21 22 23 25 26 26 27 26 27 28 29 29 30 30 30 32 35 38 44 48 54 57 56 56 57 52 51 53 50 51 51 54
24 24 23 23 23 24 26 28 30 31 32 32 32 32 33 34 34 33 33 33 33 32 32 33 33 36 39 41 44 48 49 53 56 57 55 53 52 52
30 30 31 33 34 35 35 35 34 34 35 37 37 37 37 37 37 37 37 38 38 37 36 35 35 34 36 37 37 35 39 45 49 49 51 53 54 57
33 35 37 38 40 41 42 42 42 41 41 40 40 40 41 41 41 41 41 41 40 39 38 38 38 36 35 35 35 35 34 35 40 45 47 47 50 52
35 36 37 38 40 42 44 46 47 48 49 48 47 45 44 44 44 44 44 44 43 42 41 39 38 38 38 37 35 34 33 32 32 34 37 39 41 44
37 38 38 39 40 41 42 43 46 48 49 49 50 50 48 46 46 46 46 46 45 43 42 40 39 38 38 37 36 34 33 32 31 30 30 32 33 35
38 38 38 39 39 38 39 40 41 42 44 45 47 48 47 46 46 45 44 45 45 43 42 40 39 37 36 35 34 33 31 31 30 29 27 27 28 29
37 37 36 35 36 37 39 39 39 39 39 40 40 42 43 43 41 42 42 42 42 41 40 38 37 36 35 33 33 32 30 28 27 26 26 25 24 24
33 33 34 34 34 35 37 38 39 38 37 36 37 37 37 38 36 36 37 37 37 37 36 36 34 32 31 31 29 28 27 27 24 25 24 23 22 21
31 32 32 33 33 34 35 36 37 37 36 36 35 33 33 33 32 31 32 32 32 32 32 32 32 30 28 28 27 26 25 25 24 23 22 21 19 18
36 33 31 30 30 31 31 32 32 34 34 34 33 32 31 30 29 28 27 28 28 28 28 27 27 28 26 24 24 24 23 22 21 21 21 21 20 20
Wind_Direction
225 225 230 232 233 236 233 235 238 240 241 245 248 248 247 239 262 254 251 246 244 242 247 251 259 260 261 262 260 254 254 256 257 253 250 255 250 250
225 228 229 232 233 235 234 235 238 242 246 244 250 249 246 257 278 266 246 245 239 241 245 250 258 259 260 262 258 253 251 257 261 257 245 255 253 250
230 230 232 235 235 236 234 234 237 241 243 244 250 248 252 268 272 271 243 240 235 239 245 252 263 259 261 262 265 262 258 254 254 261 256 256 259 252
237 234 232 234 235 234 233 234 236 241 246 236 258 243 247 263 263 267 246 250 248 243 248 251 268 270 271 272 269 265 263 259 252 250 255 259 264 262
230 230 235 229 232 234 235 238 240 243 241 247 247 257 240 252 255 256 255 258 256 260 260 258 266 270 273 273 271 270 263 257 257 255 252 255 258 255
221 227 222 230 234 237 243 240 243 244 244 242 246 250 254 250 251 254 257 262 265 266 264 268 267 264 266 271 268 269 266 263 265 260 256 258 261 255
237 221 226 227 232 236 236 245 253 248 235 246 247 259 254 255 251 260 263 269 264 266 267 261 277 261 268 261 260 270 267 262 261 260 255 257 258 261
254 232 223 214 204 242 246 247 264 247 251 234 247 245 260 255 257 262 266 271 270 270 275 263 267 266 259 254 255 268 271 270 265 262 261 260 260 255
269 254 255 253 224 221 232 230 253 251 243 246 246 257 250 259 261 261 264 268 270 270 274 278 267 262 254 267 265 272 268 266 265 261 263 261 259 254
17 9 355 337 325 298 289 273 275 278 273 271 268 264 257 257 259 262 263 265 267 268 264 268 253 257 269 266 272 268 270 265 265 264 257 257 257 259
360 342 347 338 321 306 294 285 286 280 276 273 273 273 271 269 268 269 269 267 268 261 266 263 262 268 264 264 264 268 263 262 264 267 265 255 259 259
332 321 312 308 302 297 295 294 288 282 278 275 277 277 276 278 279 275 273 271 268 266 266 263 264 264 266 261 262 262 257 262 260 260 260 259 254 255
312 305 305 301 296 292 287 284 282 282 282 282 279 277 277 277 275 275 275 276 277 274 272 268 267 267 266 269 269 266 262 263 259 255 258 255 261 260
316 313 310 302 293 287 285 285 286 287 286 284 283 282 280 277 277 276 274 273 273 274 276 276 273 271 270 271 272 269 267 261 258 261 261 260 259 261
310 306 302 300 298 296 295 292 287 282 280 279 279 279 278 278 278 276 275 276 276 274 273 272 274 275 276 275 275 274 272 267 264 263 263 258 259 259
307 304 300 297 294 292 291 290 289 287 284 281 278 277 276 275 274 274 274 272 271 270 271 272 272 272 273 274 275 274 271 268 264 261 259 258 257 259
304 301 298 296 294 292 291 288 286 285 284 283 281 278 275 273 272 270 270 270 271 271 270 270 269 271 272 274 275 275 275 271 269 268 266 264 263 260
304 301 298 296 293 290 287 285 284 282 281 280 279 278 277 275 272 270 268 267 265 264 265 265 266 266 266 267 270 272 274 274 272 270 269 268 266 264
308 305 301 299 296 293 290 288 287 285 283 282 282 281 280 278 276 273 270 268 265 263 260 261 262 262 263 264 264 264 268 268 270 271 268 266 264 260
304 301 299 297 295 293 292 290 290 289 288 287 285 284 283 282 280 278 276 271 269 265 263 259 256 258 259 259 260 260 261 262 263 264 265 262 260 257
302 301 299 297 295 292 289 289 289 290 291 289 286 286 285 283 283 281 277 274 271 269 267 264 258 254 255 256 256 256 255 256 254 255 258 259 255 251
309 307 304 301 297 292 289 287 287 289 290 289 288 286 284 283 282 281 278 276 273 268 264 263 262 257 253 251 252 251 250 250 248 249 248 247 243 239
320 317 312 306 300 294 290 285 283 282 283 283 283 283 283 282 281 279 277 275 273 269 266 260 259 258 255 252 250 247 245 245 243 241 242 239 236 235
Height
3019 3026 3032 3038 3043 3047 3049 3053 3056 3057 3060 3065 3067 3070 3070 3070 3073 3073 3072 3072 3072 3073 3074 3075 3076 3077 3077 3078 3079 3080 3082 3083 3084 3086 3088 3090 3092 3094
3011 3017 3023 3028 3033 3038 3040 3044 3046 3048 3050 3057 3060 3062 3062 3062 3063 3062 3063 3065 3065 3064 3066 3067 3068 3069 3070 3070 3071 3072 3074 3075 3076 3078 3079 3082 3084 3086
3003 3008 3014 3019 3023 3028 3031 3034 3036 3038 3041 3048 3048 3051 3055 3054 3054 3052 3053 3055 3056 3057 3059 3060 3061 3061 3061 3062 3063 3064 3065 3066 3066 3069 3069 3071 3074 3076
2991 2998 3003 3010 3013 3017 3020 3023 3026 3028 3030 3036 3039 3042 3043 3045 3046 3044 3045 3045 3047 3051 3052 3052 3052 3054 3054 3053 3053 3054 3055 3056 3059 3059 3060 3062 3063 3065
2982 2987 2994 3000 3003 3006 3010 3014 3016 3019 3020 3022 3029 3029 3029 3034 3038 3038 3038 3039 3041 3044 3044 3044 3043 3043 3043 3044 3044 3045 3045 3046 3048 3050 3050 3050 3053 3054
2967 2968 2978 2990 2992 2997 3002 3005 3007 3009 3011 3013 3015 3016 3020 3025 3025 3026 3027 3029 3031 3033 3033 3034 3033 3033 3032 3033 3034 3034 3035 3036 3037 3039 3039 3040 3041 3041
2964 2968 2966 2980 2975 2985 2992 2990 2983 2994 2999 3004 3003 3008 3011 3013 3013 3013 3014 3017 3019 3021 3021 3022 3022 3021 3022 3021 3022 3022 3023 3024 3025 3026 3027 3027 3028 3028
2957 2958 2964 2968 2971 2964 2975 2979 2982 2980 2987 2993 2996 2998 2999 3002 3002 3002 3003 3003 3005 3006 3008 3008 3010 3007 3010 3009 3010 3010 3011 3011 3012 3013 3014 3015 3016 3016
2955 2957 2961 2962 2961 2967 2966 2969 2973 2972 2976 2978 2980 2984 2987 2988 2991 2993 2991 2991 2993 2995 2994 2993 2996 2997 2998 2999 2998 2999 2999 3000 3001 3001 3001 3002 3002 3003
2954 2957 2959 2958 2955 2956 2955 2964 2963 2962 2968 2968 2971 2973 2975 2977 2978 2978 2978 2977 2980 2981 2981 2978 2982 2984 2987 2985 2985 2985 2986 2987 2988 2987 2988 2988 2989 2990
2958 2958 2953 2952 2956 2959 2959 2960 2959 2962 2965 2966 2964 2963 2964 2964 2964 2964 2964 2967 2967 2967 2967 2966 2965 2968 2970 2970 2970 2972 2972 2973 2974 2974 2974 2977 2978 2976
2954 2954 2954 2955 2955 2956 2956 2955 2955 2959 2960 2960 2957 2956 2953 2953 2954 2953 2953 2952 2952 2953 2955 2954 2952 2952 2953 2954 2956 2957 2957 2958 2959 2960 2961 2961 2962 2962
2956 2958 2953 2951 2953 2954 2954 2955 2955 2955 2953 2950 2949 2947 2945 2946 2947 2945 2944 2942 2942 2941 2940 2938 2938 2937 2935 2935 2937 2939 2939 2941 2943 2944 2944 2945 2947 2947
2951 2950 2946 2948 2949 2949 2947 2946 2943 2942 2942 2940 2938 2935 2935 2937 2936 2935 2934 2934 2933 2932 2931 2927 2926 2924 2923 2921 2920 2921 2922 2923 2924 2924 2928 2929 2929 2930
2942 2940 2939 2938 2937 2936 2933 2932 2931 2932 2933 2931 2928 2927 2926 2926 2925 2924 2922 2922 2922 2920 2920 2918 2915 2914 2913 2911 2909 2908 2908 2908 2909 2909 2911 2912 2913 2914
2932 2928 2928 2927 2925 2921 2920 2918 2918 2917 2917 2916 2915 2915 2913 2913 2912 2911 2910 2911 2910 2909 2909 2909 2907 2905 2904 2901 2900 2898 2896 2895 2895 2895 2896 2895 2896 2897
2928 2925 2922 2918 2914 2910 2908 2906 2905 2904 2903 2902 2902 2900 2899 2899 2897 2896 2896 2897 2895 2894 2894 2895 2893 2893 2892 2892 2891 2887 2889 2886 2884 2884 2883 2880 2882 2883
2917 2914 2909 2907 2904 2902 2900 2898 2895 2894 2893 2890 2888 2885 2886 2882 2883 2884 2882 2882 2882 2880 2880 2881 2881 2880 2880 2881 2882 2880 2877 2877 2876 2875 2872 2871 2871 2871
2905 2901 2899 2896 2895 2892 2891 2889 2887 2884 2880 2877 2874 2870 2869 2868 2869 2869 2868 2868 2868 2868 2868 2867 2870 2867 2869 2871 2869 2871 2868 2866 2866 2869 2864 2862 2864 2863
2896 2894 2891 2888 2884 2881 2878 2877 2875 2871 2868 2863 2860 2857 2857 2857 2855 2854 2855 2854 2857 2854 2857 2857 2854 2859 2861 2858 2861 2859 2860 2857 2858 2858 2860 2855 2857 2858
2889 2884 2880 2877 2872 2869 2869 2866 2863 2858 2853 2851 2852 2849 2847 2846 2844 2844 2846 2843 2845 2844 2844 2848 2848 2841 2848 2852 2849 2849 2846 2850 2847 2850 2849 2851 2850 2853
2878 2873 2867 2863 2860 2861 2858 2854 2852 2845 2842 2844 2843 2840 2841 2838 2835 2834 2836 2834 2832 2832 2835 2837 2839 2834 2835 2839 2844 2841 2837 2841 2839 2842 2840 2843 2845 2846
2859 2858 2856 2855 2853 2851 2848 2845 2841 2839 2836 2837 2834 2832 2830 2828 2827 2828 2828 2826 2825 2824 2825 2826 2826 2828 2826 2830 2834 2832 2831 2832 2832 2833 2834 2835 2838 2839